Orbital Elements at Epoch 2459000.5 (2020-May-31.0) TDB
Reference: JPL 21 (heliocentric ecliptic J2000)
Element | Value | Uncertainty (1-sigma) | Units |
e | .1688315526209962 | 3.5145e-08 | |
a | 2.417880756328683 | 1.0817e-08 | au |
q | 2.009666194185283 | 8.4885e-08 | au |
i | 3.965341585814628 | 3.7715e-06 | deg |
node | 116.2300156162873 | 5.7749e-05 | deg |
peri | 299.2661497793668 | 5.9368e-05 | deg |
M | 187.3830063512119 | 1.6882e-05 | deg |
tp | 2459658.963631393184 (2022-Mar-20.46363139) | 6.7211e-05 | TDB |
period | 1373.253596247014 3.76 | 9.2151e-06 2.523e-08 | d yr |
n | .2621511430837317 | 1.7591e-09 | deg/d |
Q | 2.826095318472083 | 1.2643e-08 | au |
|
| | Orbit Determination Parameters
Additional Information
|